Overview Statistics Trail Chart Weather Telemetry Raw packets
 

This is the latest recevied weather packets stored in our database for station/object DF7ER-12. If no packets are shown the sender has not sent any weather packets the latest 10 day(s).

<< 19 20 21 22 23 24 25 >>
Time Temp. Humidity Pressure Rain* Wind** Luminosity Snow
1788537994 21.67° C 100% 996.6 hPa - - - -
1788537694 22.22° C 97% 996.8 hPa - - - -
1788537394 22.22° C 98% 996.8 hPa - - - -
1788537095 22.78° C 94% 996.7 hPa - - - -
1788536794 22.78° C 95% 996.3 hPa - - - -
1788536494 22.78° C 95% 996.1 hPa - - - -
1788536194 22.78° C 98% 996.9 hPa - - - -
1788535894 22.78° C 96% 996.3 hPa - - - -
1788535594 22.78° C 97% 996.7 hPa - - - -
1788535295 23.33° C 95% 996.4 hPa - - - -
1788535003 23.33° C 94% 996.4 hPa - - - -
1788534694 23.33° C 95% 995.9 hPa - - - -
1788534394 23.33° C 94% 995.9 hPa - - - -
1788534094 23.33° C 98% 996.1 hPa - - - -
1788533794 23.33° C 100% 996.5 hPa - - - -
1788533494 22.78° C 100% 996.8 hPa - - - -
1788533213 22.78° C 100% 996.9 hPa - - - -
1788532894 23.33° C 99% 996.9 hPa - - - -
1788532594 23.33° C 100% 996.9 hPa - - - -
1788532294 23.33° C 100% 997 hPa - - - -
1788531994 23.89° C 100% 996.6 hPa - - - -
1788531365 23.89° C 100% 996.6 hPa - - - -
1788531065 23.89° C 100% 996.5 hPa - - - -
1788530765 23.89° C 100% 996.3 hPa - - - -
1788530465 23.89° C 100% 996.1 hPa - - - -

* Rain since midnight (hover to see other rain measurements)
** Current wind speed in m/s (hover to see current wind gust speed)